Location: Ab? ar R?sh Ba?r?
(24.1861°N, 32.8847°E)
Time: 11:48:37
(UTC+00:00)

Cosmos 2360 Rocket - Pass Details

Date: 24 October 2021
Orbit: 832 x 846 km, 71.0° (Epoch: 04 December)

Event Time Altitude Azimuth Distance (km) Brightness Sun altitude
Rises 16:25:47 0° 211° (SSW) 3,367 5.9 -16.9°
Reaches altitude 10° 16:28:18 10° 217° (SW) 2,438 5.2 -17.4°
Maximum altitude 16:33:40 48° 290° (WNW) 1,089 3.2 -18.7°
Drops below altitude 10° 16:39:05 10° 4° (N) 2,455 4.5 -19.9°
Sets 16:41:38 0° 10° (N) 3,394 5.2 -20.5°
